This is the latest recevied weather packets stored in our database for station/object EA1FBN. If no packets are shown the sender has not sent any weather packets the latest 10 day(s).
| Time | Temp. | Humidity | Pressure | Rain* | Wind** | Luminosity | Snow |
|---|---|---|---|---|---|---|---|
| 1787608835 | 17.22° C | 74% | 1012.1 hPa | 0 mm | - | - | - |
| 1787608536 | 17.22° C | 74% | 1012.1 hPa | 0 mm | - | - | - |
| 1787607936 | 17.22° C | 74% | 1012 hPa | 0 mm | - | - | - |
| 1787607636 | 17.78° C | 73% | 1012.1 hPa | 0 mm | - | - | - |
| 1787607036 | 17.78° C | 74% | 1011.9 hPa | 0 mm | - | - | - |
| 1787606736 | 17.78° C | 74% | 1011.8 hPa | 0 mm | - | - | - |
| 1787606136 | 17.78° C | 75% | 1011.8 hPa | 0 mm | - | - | - |
| 1787605836 | 17.78° C | 76% | 1011.8 hPa | 0 mm | - | - | - |
| 1787605236 | 17.78° C | 77% | 1011.9 hPa | 0 mm | - | - | - |
| 1787604936 | 17.78° C | 77% | 1011.8 hPa | 0 mm | - | - | - |
| 1787604336 | 17.78° C | 77% | 1011.6 hPa | 0 mm | - | - | - |
| 1787604036 | 17.78° C | 78% | 1011.5 hPa | 0 mm | - | - | - |
| 1787603436 | 17.78° C | 78% | 1011.4 hPa | 0 mm | - | - | - |
| 1787603136 | 17.78° C | 78% | 1011.2 hPa | 0 mm | - | - | - |
| 1787602536 | 17.22° C | 77% | 1011.2 hPa | 0 mm | - | - | - |
| 1787602236 | 17.22° C | 77% | 1011.1 hPa | 0 mm | - | - | - |
| 1787601636 | 17.22° C | 75% | 1011 hPa | 1.02 mm | - | - | - |
| 1787601336 | 17.22° C | 74% | 1011 hPa | 2.29 mm | - | - | - |
| 1787600736 | 17.22° C | 73% | 1010.8 hPa | 6.1 mm | - | - | - |
| 1787600436 | 17.22° C | 72% | 1010.7 hPa | 7.62 mm | - | - | - |
| 1787599836 | 17.22° C | 72% | 1010.5 hPa | 8.13 mm | - | - | - |
| 1787599536 | 17.22° C | 72% | 1010.4 hPa | 8.13 mm | - | - | - |
| 1787598936 | 16.67° C | 73% | 1010.3 hPa | 8.13 mm | - | - | - |
| 1787598636 | 16.67° C | 74% | 1010.3 hPa | 8.13 mm | - | - | - |
| 1787598036 | 17.22° C | 76% | 1010.4 hPa | 7.37 mm | - | - | - |
* Rain latest hour (hover to see other rain measurements)
** Current wind speed in m/s (hover to see current wind gust speed)